Voltar ao catálogo

EUCROPIS

AtivoCiênciaSSO
NORAD 43807·PAYLOAD·🇩🇪 Germany

Lançado Dec 3, 2018 de Vandenberg Space Force Base

Loading…

Próximas Passagens (próximas 24 horas)

TLE

AtualizadoSource: Space-Track

Época: Sep 14, 2026, 14:16 UTC

1 43807U 18099BB  26257.59464112  .00005502  00000-0  24608-3 0  9998
2 43807  97.4129 312.0396 0004893   2.9372 357.1892 15.21702590426051

Acompanhe EUCROPIS em tempo real com AllMySat

Download on the App Store